Location: Lombard
(41.8800°N, 88.0080°W)
Time: 23:39:37
(UTC-05:00)

Tiros 1 - Pass Details

Date: 03 February 2023
Orbit: 628 x 662 km, 48.4° (Epoch: 20 March)

Event Time Altitude Azimuth Distance (km) Brightness Sun altitude
Rises 22:07:28 0° 187° (S) 2,893 - -54.0°
Reaches altitude 10° 22:10:51 10° 161° (SSE) 1,992 - -54.5°
Maximum altitude 22:13:04 13° 131° (SE) 1,775 - -54.8°
Drops below altitude 10° 22:15:18 10° 102° (ESE) 2,001 - -55.1°
Sets 22:18:43 0° 76° (ENE) 2,917 - -55.6°
